| time (UTC) | temp C | wind direction | speed KPH | gust KPH | rain 1hr cm | rain 24hr cm | rain mn cm | humidity % | barometer mb |
| 20260502232122 | 8 | 0 | 0.0 | 0.0 | 0.00 | 0.00 | 0.00 | 54 | 994.0 |
| 20260502231022 | 8 | 0 | 0.0 | 0.0 | 0.00 | 0.00 | 0.00 | 54 | 993.8 |
| 20260502225922 | 9 | 0 | 0.0 | 0.0 | 0.00 | 0.00 | 0.00 | 53 | 993.7 |
| 20260502224822 | 9 | 0 | 0.0 | 0.0 | 0.00 | 0.00 | 0.00 | 53 | 993.6 |
| 20260502223822 | 9 | 0 | 0.0 | 0.0 | 0.00 | 0.00 | 0.00 | 53 | 993.4 |
| 20260502222822 | 9 | 0 | 0.0 | 0.0 | 0.00 | 0.00 | 0.00 | 52 | 993.5 |
| 20260502221737 | 10 | 0 | 0.0 | 0.0 | 0.00 | 0.00 | 0.00 | 52 | 993.3 |
| 20260502220722 | 10 | 0 | 0.0 | 0.0 | 0.00 | 0.00 | 0.00 | 52 | 993.3 |
| 20260502215622 | 10 | 0 | 0.0 | 0.0 | 0.00 | 0.00 | 0.00 | 52 | 993.2 |
| 20260502214622 | 10 | 0 | 0.0 | 0.0 | 0.00 | 0.00 | 0.00 | 51 | 993.0 |
| 20260502213522 | 10 | 0 | 0.0 | 0.0 | 0.00 | 0.00 | 0.00 | 50 | 992.8 |
| 20260502212521 | 10 | 0 | 0.0 | 0.0 | 0.00 | 0.00 | 0.00 | 49 | 992.7 |
| 20260502211522 | 11 | 0 | 0.0 | 0.0 | 0.00 | 0.00 | 0.00 | 49 | 992.5 |
| 20260502210422 | 11 | 0 | 0.0 | 0.0 | 0.00 | 0.00 | 0.00 | 49 | 992.4 |
| 20260502205322 | 11 | 0 | 0.0 | 0.0 | 0.00 | 0.00 | 0.00 | 48 | 992.3 |
| 20260502204322 | 11 | 0 | 0.0 | 0.0 | 0.00 | 0.00 | 0.00 | 48 | 992.0 |
| 20260502203222 | 11 | 0 | 0.0 | 0.0 | 0.00 | 0.00 | 0.00 | 47 | 991.8 |
| 20260502202122 | 11 | 0 | 0.0 | 0.0 | 0.00 | 0.00 | 0.00 | 46 | 991.7 |
| 20260502201137 | 12 | 0 | 0.0 | 0.0 | 0.00 | 0.00 | 0.00 | 45 | 991.5 |
| 20260502200122 | 12 | 0 | 0.0 | 0.0 | 0.00 | 0.00 | 0.00 | 44 | 991.5 |
| 20260502195022 | 12 | 0 | 0.0 | 0.0 | 0.00 | 0.00 | 0.00 | 46 | 991.4 |
| 20260502194022 | 12 | 0 | 0.0 | 0.0 | 0.00 | 0.00 | 0.00 | 47 | 991.3 |
| 20260502192922 | 12 | 0 | 0.0 | 0.0 | 0.00 | 0.00 | 0.00 | 46 | 991.2 |
| 20260502191922 | 12 | 0 | 0.0 | 0.0 | 0.00 | 0.00 | 0.00 | 46 | 991.1 |
| 20260502190922 | 13 | 0 | 0.0 | 0.0 | 0.00 | 0.00 | 0.00 | 45 | 990.9 |
| 20260502185822 | 13 | 0 | 0.0 | 0.0 | 0.00 | 0.00 | 0.00 | 44 | 990.8 |
| 20260502184822 | 13 | 0 | 0.0 | 0.0 | 0.00 | 0.00 | 0.00 | 44 | 990.7 |
| 20260502183822 | 13 | 0 | 0.0 | 0.0 | 0.00 | 0.00 | 0.00 | 43 | 990.7 |
| 20260502182836 | 13 | 0 | 0.0 | 0.0 | 0.00 | 0.00 | 0.00 | 42 | 990.6 |
| 20260502181822 | 13 | 0 | 0.0 | 0.0 | 0.00 | 0.00 | 0.00 | 40 | 990.3 |
| 20260502180822 | 13 | 0 | 0.0 | 0.0 | 0.00 | 0.00 | 0.00 | 40 | 990.3 |
| 20260502163522 | 15 | 0 | 0.0 | 0.0 | 0.00 | 0.00 | 0.00 | 35 | 989.1 |
| 20260502162522 | 15 | 0 | 0.0 | 0.0 | 0.00 | 0.00 | 0.00 | 35 | 989.0 |
| 20260502161422 | 15 | 0 | 0.0 | 0.0 | 0.00 | 0.00 | 0.00 | 34 | 988.7 |
| 20260502160422 | 16 | 0 | 0.0 | 0.0 | 0.00 | 0.00 | 0.00 | 34 | 988.6 |
| 20260502152322 | 16 | 0 | 0.0 | 0.0 | 0.00 | 0.00 | 0.00 | 33 | 988.3 |
| 20260502151321 | 17 | 0 | 0.0 | 0.0 | 0.00 | 0.00 | 0.00 | 33 | 988.1 |
| 20260502150321 | 17 | 0 | 0.0 | 0.0 | 0.00 | 0.00 | 0.00 | 32 | 988.1 |
| 20260502122721 | 21 | 0 | 0.0 | 0.0 | 0.00 | 0.00 | 0.00 | 23 | 986.1 |
| 20260502121722 | 21 | 0 | 0.0 | 0.0 | 0.00 | 0.00 | 0.00 | 23 | 986.0 |
| 20260502120722 | 21 | 0 | 0.0 | 0.0 | 0.00 | 0.00 | 0.00 | 22 | 986.0 |
| 20260502115721 | 22 | 0 | 0.0 | 0.0 | 0.00 | 0.00 | 0.00 | 23 | 986.0 |
| 20260502114621 | 22 | 0 | 0.0 | 0.0 | 0.00 | 0.00 | 0.00 | 21 | 985.8 |
| 20260502113522 | 23 | 0 | 0.0 | 0.0 | 0.00 | 0.00 | 0.00 | 20 | 985.8 |
| 20260502112422 | 23 | 0 | 0.0 | 0.0 | 0.00 | 0.00 | 0.00 | 19 | 985.6 |
| 20260502111422 | 23 | 0 | 0.0 | 0.0 | 0.00 | 0.00 | 0.00 | 20 | 985.6 |
| 20260502110321 | 23 | 0 | 0.0 | 0.0 | 0.00 | 0.00 | 0.00 | 21 | 985.4 |
| 20260502105321 | 24 | 0 | 0.0 | 0.0 | 0.00 | 0.00 | 0.00 | 21 | 985.4 |
| 20260502104222 | 25 | 0 | 0.0 | 0.0 | 0.00 | 0.00 | 0.00 | 22 | 985.4 |
| 20260502103237 | 25 | 0 | 0.0 | 0.0 | 0.00 | 0.00 | 0.00 | 22 | 985.3 |
| 20260502102122 | 25 | 0 | 0.0 | 0.0 | 0.00 | 0.00 | 0.00 | 20 | 985.3 |
| 20260502101122 | 25 | 0 | 0.0 | 0.0 | 0.00 | 0.00 | 0.00 | 21 | 985.1 |
| 20260502100137 | 26 | 0 | 0.0 | 0.0 | 0.00 | 0.00 | 0.00 | 19 | 984.8 |
| 20260502091121 | 26 | 0 | 0.0 | 0.0 | 0.00 | 0.00 | 0.00 | 14 | 984.6 |
| 20260502070558 | 26 | 0 | 0.0 | 0.0 | 0.00 | 0.00 | 0.00 | 25 | 983.6 |
| 20260502065557 | 25 | 0 | 0.0 | 0.0 | 0.00 | 0.00 | 0.00 | 24 | 983.6 |
| 20260502064558 | 25 | 0 | 0.0 | 0.0 | 0.00 | 0.00 | 0.00 | 23 | 983.5 |
| 20260502063458 | 25 | 0 | 0.0 | 0.0 | 0.00 | 0.00 | 0.00 | 22 | 983.5 |
| 20260502062458 | 25 | 0 | 0.0 | 0.0 | 0.00 | 0.00 | 0.00 | 21 | 983.6 |
| 20260502061458 | 25 | 0 | 0.0 | 0.0 | 0.00 | 0.00 | 0.00 | 20 | 983.6 |
| 20260502060458 | 25 | 0 | 0.0 | 0.0 | 0.00 | 0.00 | 0.00 | 19 | 983.6 |
| 20260502055458 | 25 | 0 | 0.0 | 0.0 | 0.00 | 0.00 | 0.00 | 18 | 983.8 |
| 20260502054457 | 26 | 0 | 0.0 | 0.0 | 0.00 | 0.00 | 0.00 | 16 | 983.6 |
| 20260502053458 | 26 | 0 | 0.0 | 0.0 | 0.00 | 0.00 | 0.00 | 17 | 983.7 |
| 20260502052458 | 25 | 0 | 0.0 | 0.0 | 0.00 | 0.00 | 0.00 | 17 | 983.7 |
| 20260502051357 | 25 | 0 | 0.0 | 0.0 | 0.00 | 0.00 | 0.00 | 16 | 984.0 |
| 20260502050358 | 26 | 0 | 0.0 | 0.0 | 0.00 | 0.00 | 0.00 | 16 | 983.8 |
| 20260502045413 | 26 | 0 | 0.0 | 0.0 | 0.00 | 0.00 | 0.00 | 16 | 983.6 |
| 20260502044258 | 25 | 0 | 0.0 | 0.0 | 0.00 | 0.00 | 0.00 | 16 | 983.4 |
| 20260502042257 | 25 | 0 | 0.0 | 0.0 | 0.00 | 0.00 | 0.00 | 15 | 983.2 |
| 20260502041157 | 25 | 0 | 0.0 | 0.0 | 0.00 | 0.00 | 0.00 | 16 | 982.9 |
| 20260502040158 | 25 | 0 | 0.0 | 0.0 | 0.00 | 0.00 | 0.00 | 17 | 983.3 |
| 20260502035158 | 25 | 0 | 0.0 | 0.0 | 0.00 | 0.00 | 0.00 | 17 | 982.9 |
| 20260502034157 | 24 | 0 | 0.0 | 0.0 | 0.00 | 0.00 | 0.00 | 18 | 982.9 |
| 20260502033158 | 24 | 0 | 0.0 | 0.0 | 0.00 | 0.00 | 0.00 | 19 | 983.1 |
| 20260502032058 | 23 | 0 | 0.0 | 0.0 | 0.00 | 0.00 | 0.00 | 19 | 983.1 |
| 20260502031058 | 22 | 0 | 0.0 | 0.0 | 0.00 | 0.00 | 0.00 | 20 | 983.4 |
| 20260502025957 | 22 | 0 | 0.0 | 0.0 | 0.00 | 0.00 | 0.00 | 20 | 983.4 |
| 20260502024957 | 22 | 0 | 0.0 | 0.0 | 0.00 | 0.00 | 0.00 | 20 | 983.5 |
| 20260502023917 | 22 | 0 | 0.0 | 0.0 | 0.00 | 0.00 | 0.00 | 6 | 988.9 |